Location: Ashtead
(51.3000°N, 0.3000°W)
Time: 05:05:22
(UTC+00:00)

USA 215 - Pass Details

Date: 26 September 2023
Orbit: 1098 x 1109 km, 123.0° (Epoch: 17 November)

Event Time Altitude Azimuth Distance (km) Brightness Sun altitude
Rises 01:42:22 0° 114° (ESE) 3,907 6.3 -34.7°
Reaches altitude 10° 01:44:50 10° 114° (ESE) 2,952 5.6 -34.5°
Enters shadow 01:48:21 35° 113° (ESE) 1,688 4.2 -34.2°
